www.pogodaiklimat.ru

Погода и климат >> Архив погоды >> Япония >> Нобеока


ПОГОДА в Нобеоке

  • Прогноз погоды в Нобеоке
  • Монитор погоды в Нобеоке

АРХИВ ПОГОДЫ в Нобеоке

Время (UTC), дата Ветер
(напр.,м/с)
 
Видим.   Явления Облачность Т
(С)
Тd
(С)
f
(%)
Тe
(С)
Тes
(С)
Комфортность P
(гПа)
Po
(гПа)
Тmin
(С)
Tmax
(С)
R
(мм)
R24
(мм)
S
(см)
22 10.06 ЮЗ 1 20 км н/о +19.4 +15.7 79 +23 +23 комфорт 1005.7 1003.3
23 10.06 СВ 1 20 км н/о +21.7 +16.7 73 +26 +26 душно 1006.1 1003.7
00 11.06 ЮВ 2 20 км н/о +22.9 +15.0 61 +27 +27 душно 1006.3 1003.9 +17.7
01 11.06 В 1 19 км н/о +25.1 +16.5 59 +29 +29 душно 1006.0 1003.6
02 11.06 В 3 20 км н/о +24.7 +15.4 56 +28 +28 душно 1005.8 1003.4
03 11.06 ЮВ 3 н/о н/о +24.0 +16.8 64 +28 +28 душно 1005.8 1003.4
04 11.06 ЮВ 4 20 км н/о +24.5 +16.5 61 +28 +28 душно 1005.5 1003.1
05 11.06 В 4 16 км н/о +24.1 +16.9 64 +28 +28 душно 1005.3 1002.9
06 11.06 В 3 20 км н/о +24.6 +17.1 63 +28 +28 душно 1005.2 1002.8 0.0
07 11.06 В 3 20 км н/о +23.7 +16.3 63 +27 +27 жарко 1004.9 1002.5
08 11.06 ЮВ 2 20 км н/о +24.2 +16.5 62 +28 +28 душно 1004.7 1002.3
09 11.06 Ю 2 20 км в посл. час дождь н/о +23.4 +16.0 63 +28 +28 душно 1005.1 1002.7
10 11.06 Ю 2 20 км н/о +22.8 +16.1 66 +27 +27 душно 1005.5 1003.1
11 11.06 СЗ 1 20 км н/о +22.1 +16.8 72 +26 +26 душно 1006.1 1003.7
12 11.06 З 1 20 км {дождь} н/о +21.2 +17.0 77 +25 +25 комфорт 1006.6 1004.2 +26.2 0.0
13 11.06 З 1 17 км н/о +19.9 +17.1 84 +24 +24 комфорт 1007.0 1004.6
14 11.06 ЮЗ 1 20 км н/о +20.0 +15.2 74 +23 +23 комфорт 1007.0 1004.6
15 11.06 ЮЗ 1 20 км н/о +19.4 +15.1 76 +22 +22 комфорт 1006.8 1004.4
16 11.06 ЮЗ 2 19 км н/о +18.6 +15.9 84 +20 +20 1006.8 1004.3
17 11.06 ЮЗ 2 20 км н/о +18.6 +15.1 80 +20 +20 1006.8 1004.3
18 11.06 ЮЗ 2 14 км н/о +17.4 +16.1 92 +18 +18 1007.0 1004.5
19 11.06 ЮЗ 1 17 км н/о +17.2 +15.7 91 +18 +18 1007.3 1004.8
20 11.06 ЮЗ 1 16 км н/о +17.0 +15.2 89 +18 +18 1007.9 1005.4
21 11.06 З 2 19 км н/о +17.6 +15.1 85 +18 +18 1008.1 1005.6
23 11.06 З 2 20 км н/о +21.4 +14.8 66 +24 +24 комфорт 1008.5 1006.1
00 12.06 ЮЗ 2 20 км н/о +23.4 +15.0 59 +27 +27 душно 1008.3 1005.9 +16.5
01 12.06 З 2 20 км н/о +24.9 +13.8 50 +27 +27 жарко 1008.1 1005.7
02 12.06 СВ 3 20 км н/о +25.4 +13.6 48 +28 +28 жарко 1008.3 1005.9
03 12.06 С 3 20 км н/о +26.5 +13.6 45 +29 +29 жарко 1008.0 1005.6
04 12.06 С 4 20 км н/о +27.7 +14.4 44 +30 +30 жарко 1007.5 1005.1
05 12.06 В 5 20 км н/о +27.5 +14.2 44 +30 +30 жарко 1007.0 1004.6
06 12.06 СВ 3 20 км н/о +28.3 +14.5 43 +31 +31 душно 1006.7 1004.3
07 12.06 В 4 20 км н/о +27.0 +14.1 45 +29 +29 жарко 1006.7 1004.3
08 12.06 СВ 3 20 км н/о +27.1 +13.5 43 +29 +29 жарко 1006.8 1004.4
09 12.06 СВ 2 20 км н/о +26.5 +13.6 45 +29 +29 жарко 1007.1 1004.7
10 12.06 Ю 3 20 км н/о +25.4 +13.6 48 +28 +28 жарко 1008.0 1005.6
11 12.06 З 2 20 км н/о +22.6 +16.6 69 +27 +27 душно 1009.0 1006.6
12 12.06 З 2 20 км н/о +22.1 +17.0 73 +27 +27 душно 1009.5 1007.1 +29.2
13 12.06 З 2 20 км н/о +20.9 +17.5 81 +26 +26 душно 1010.0 1007.6
14 12.06 З 1 20 км н/о +19.9 +17.5 86 +24 +24 комфорт 1010.1 1007.7
15 12.06 З 2 20 км н/о +19.3 +17.1 87 +22 +22 комфорт 1010.1 1007.6
16 12.06 З 1 20 км н/о +18.7 +16.7 88 +21 +21 комфорт 1009.8 1007.3
17 12.06 З 2 20 км н/о +18.2 +16.5 90 +19 +19 1009.7 1007.2
18 12.06 З 2 20 км н/о +17.9 +16.1 89 +19 +19 1009.7 1007.2
19 12.06 З 2 20 км н/о +17.5 +15.9 90 +18 +18 1009.9 1007.4
20 12.06 З 2 20 км н/о +16.9 +15.4 91 +17 +17 1010.2 1007.7
21 12.06 З 2 20 км н/о +17.3 +15.3 88 +18 +18 1010.9 1008.4
22 12.06 З 3 20 км н/о +19.4 +16.1 81 +22 +22 комфорт 1011.4 1008.9
23 12.06 З 2 20 км н/о +21.6 +15.2 67 +25 +25 комфорт 1011.4 1009.0
00 13.06 В 2 20 км н/о +24.5 +16.0 59 +28 +28 душно 1011.4 1009.0 +16.8
01 13.06 ЮВ 3 15 км н/о +25.3 +17.0 60 +29 +29 душно 1011.4 1009.0
02 13.06 В 3 20 км н/о +25.0 +17.2 62 +29 +29 душно 1011.7 1009.3
03 13.06 В 4 18 км н/о +25.3 +18.3 65 +30 +30 душно 1011.5 1009.1
04 13.06 В 5 20 км н/о +25.3 +18.7 67 +30 +30 душно 1011.1 1008.7
05 13.06 ЮВ 4 20 км н/о +25.5 +19.4 69 +31 +31 очень
душно
1010.8 1008.4
07 13.06 В 4 20 км н/о +24.6 +18.8 70 +29 +29 душно 1010.0 1007.6
08 13.06 ЮВ 3 20 км н/о +24.6 +19.2 72 +30 +30 очень
душно
1010.0 1007.6
09 13.06 В 3 20 км н/о +24.5 +18.9 71 +29 +29 душно 1009.8 1007.4
10 13.06 ЮВ 2 20 км н/о +24.3 +18.9 72 +29 +29 душно 1010.5 1008.1
11 13.06 З 1 20 км н/о +23.5 +19.2 77 +28 +28 душно 1010.8 1008.4
12 13.06 З 2 20 км н/о +22.4 +19.2 82 +28 +28 душно 1011.1 1008.7 +27.1
13 13.06 З 2 18 км н/о +21.6 +19.5 88 +27 +27 душно 1011.4 1009.0
14 13.06 З 1 18 км н/о +21.0 +19.1 89 +27 +27 душно 1011.0 1008.6
15 13.06 З 1 17 км н/о +20.8 +19.1 90 +27 +27 душно 1010.4 1008.0
16 13.06 ЮЗ 1 15 км н/о +20.7 +19.4 92 +26 +26 душно 1009.9 1007.5
17 13.06 СЗ 2 14 км слаб. дождь н/о +21.0 +19.5 91 +27 +27 душно 1009.2 1006.8
18 13.06 ЮЗ 2 18 км в посл. час дождь н/о +21.5 +19.8 90 +27 +27 душно 1008.6 1006.2 0.0
19 13.06 З 1 16 км н/о +21.1 +19.6 91 +26 +26 душно 1008.1 1005.7
20 13.06 З 2 6000 м слаб. дождь н/о +20.2 +19.7 97 +25 +25 комфорт 1007.5 1005.1
21 13.06 З 2 5000 м в посл. час дождь н/о +20.2 +20.1 99 +25 +25 комфорт 1007.5 1005.1
22 13.06 ЮЗ 2 7000 м слаб. дождь н/о +20.6 +20.3 98 +26 +26 душно 1007.2 1004.8
23 13.06 С 1 10 км в посл. час дождь н/о +22.4 +20.9 91 +29 +29 очень
душно
1006.6 1004.2
00 14.06 СВ 3 6000 м слаб. дождь н/о +21.8 +20.5 92 +28 +28 душно 1006.1 1003.7 +20.1 3
02 14.06 СВ 1 9000 м слаб. дождь н/о +22.0 +21.0 94 +28 +28 душно 1006.5 1004.1
03 14.06 С 1 10 км слаб. дождь н/о +22.0 +21.2 95 +28 +28 душно 1005.8 1003.4
04 14.06 В 3 5000 м слаб. дождь н/о +21.2 +20.5 96 +26 +26 душно 1004.7 1002.3
05 14.06 ЮВ 3 7000 м слаб. дождь н/о +20.4 +19.6 95 +25 +25 комфорт 1004.3 1001.9
06 14.06 С 2 8000 м дождь н/о +19.9 +19.4 97 +24 +24 комфорт 1004.2 1001.8 20
07 14.06 С 1 4500 м дождь н/о +20.1 +19.8 98 +25 +25 комфорт 1003.5 1001.1
08 14.06 В 2 2000 м дождь н/о +19.9 +19.9 100 +24 +24 комфорт 1002.4 1000.0
09 14.06 В 4 4800 м слаб. дождь н/о +20.8 +20.2 96 +26 +26 душно 1001.8 999.4
10 14.06 В 3 5000 м дождь н/о +21.1 +19.8 92 +26 +26 душно 1001.5 999.1
11 14.06 В 4 2100 м дождь н/о +20.3 +20.1 99 +25 +25 комфорт 1001.1 998.7
12 14.06 В 4 4200 м дождь н/о +20.8 +20.0 95 +26 +26 душно 1000.8 998.4 +22.0 43
13 14.06 В 3 2600 м дождь н/о +21.3 +20.8 97 +27 +27 душно 1000.7 998.3
14 14.06 В 3 5000 м слаб. дождь н/о +21.2 +20.5 96 +26 +26 душно 1000.0 997.6
15 14.06 СВ 2 6000 м слаб. дождь н/о +21.3 +20.6 96 +27 +27 душно 999.0 996.6
16 14.06 В 4 2600 м слаб. дождь н/о +20.6 +20.3 98 +25 +25 комфорт 997.7 995.3
17 14.06 СВ 3 7000 м дождь н/о +20.9 +19.9 94 +26 +26 душно 996.7 994.3
18 14.06 СВ 3 8000 м слаб. дождь н/о +20.8 +19.8 94 +26 +26 душно 994.8 992.4 21
19 14.06 В 2 13 км слаб. дождь н/о +20.7 +19.5 93 +26 +26 душно 994.6 992.2
20 14.06 СВ 3 4200 м слаб. дождь н/о +20.1 +19.5 96 +24 +24 комфорт 992.8 990.4
21 14.06 СЗ 2 6000 м дождь н/о +19.5 +19.0 97 +23 +23 комфорт 993.4 991.0
22 14.06 З 3 5000 м дождь н/о +19.4 +19.4 100 +22 +22 комфорт 993.3 990.9
23 14.06 З 2 7000 м дождь н/о +19.4 +19.4 100 +23 +23 комфорт 993.8 991.4
00 15.06 СВ 2 8000 м дождь н/о +19.1 +18.5 96 +21 +21 комфорт 991.2 988.8 +19.0 56
01 15.06 З 3 20 км слаб. дождь н/о +19.4 +18.8 96 +22 +22 комфорт 991.6 989.2
02 15.06 С 1 20 км в посл. час дождь н/о +21.4 +19.0 86 +26 +26 душно 992.7 990.3
03 15.06 СВ 1 20 км {дождь} н/о +22.1 +18.5 80 +27 +27 душно 993.3 990.9
04 15.06 З 2 20 км н/о +22.9 +18.9 78 +29 +29 очень
душно
993.0 990.6
05 15.06 З 3 20 км н/о +22.4 +18.8 80 +28 +28 душно 993.2 990.8
06 15.06 З 4 20 км в посл. час дождь н/о +23.3 +18.2 73 +29 +29 душно 993.2 990.8 2
07 15.06 З 4 20 км н/о +22.6 +17.7 74 +28 +28 душно 993.6 991.2
08 15.06 З 3 20 км н/о +22.4 +17.6 74 +27 +27 душно 994.3 991.9
09 15.06 З 4 20 км н/о +22.4 +16.9 71 +27 +27 душно 995.2 992.8
10 15.06 З 3 20 км н/о +21.9 +16.4 71 +26 +26 душно 996.3 993.9
11 15.06 ЮЗ 3 20 км н/о +20.9 +15.5 71 +24 +24 комфорт 997.4 995.0
12 15.06 З 5 20 км н/о +21.3 +14.7 66 +24 +24 комфорт 998.4 996.0 +23.6 2
13 15.06 З 5 20 км н/о +20.9 +14.6 67 +24 +24 комфорт 999.0 996.6
14 15.06 З 4 20 км н/о +20.6 +14.7 69 +24 +24 комфорт 1000.0 997.6
15 15.06 З 4 20 км н/о +20.4 +15.0 71 +23 +23 комфорт 1000.2 997.8
16 15.06 Ю 3 20 км н/о +19.6 +15.5 77 +22 +22 комфорт 1000.6 998.2
17 15.06 З 4 20 км н/о +19.6 +15.7 78 +22 +22 комфорт 1000.4 998.0
18 15.06 ЮЗ 3 17 км н/о +19.1 +16.0 82 +21 +21 комфорт 1000.9 998.5
19 15.06 ЮЗ 1 14 км н/о +18.6 +15.9 84 +21 +21 комфорт 1001.0 998.6
20 15.06 СЗ 3 20 км н/о +21.6 +14.0 62 +24 +24 комфорт 1001.4 999.0
21 15.06 СЗ 1 20 км н/о +21.1 +14.0 64 +24 +24 комфорт 1002.2 999.8
22 15.06 З 5 20 км н/о +22.2 +14.1 60 +25 +25 комфорт 1002.4 1000.0
23 15.06 З 4 20 км н/о +23.9 +14.6 56 +27 +27 жарко 1003.4 1001.0
00 16.06 З 3 20 км н/о +24.9 +15.8 57 +28 +28 жарко 1003.8 1001.4 +18.0
01 16.06 З 3 20 км н/о +25.9 +15.9 54 +29 +29 душно 1004.1 1001.7
02 16.06 З 2 20 км н/о +25.6 +15.0 52 +28 +28 жарко 1004.6 1002.2
03 16.06 В 3 19 км н/о +25.4 +17.6 62 +30 +30 душно 1005.4 1003.0
04 16.06 В 4 17 км н/о +24.6 +18.8 70 +29 +29 душно 1005.7 1003.3
05 16.06 В 3 17 км н/о +23.7 +18.4 72 +28 +28 душно 1005.9 1003.5
06 16.06 В 3 20 км н/о +23.9 +18.6 72 +28 +28 душно 1006.3 1003.9
07 16.06 В 3 18 км н/о +23.8 +18.0 70 +28 +28 душно 1006.6 1004.2
08 16.06 В 3 16 км н/о +24.0 +18.7 72 +29 +29 душно 1007.1 1004.7
09 16.06 В 2 15 км слаб. дождь н/о +23.5 +17.7 70 +28 +28 душно 1007.8 1005.4
10 16.06 С 1 20 км в посл. час дождь н/о +23.5 +17.5 69 +27 +27 душно 1008.4 1006.0
11 16.06 З 1 16 км в посл. час дождь н/о +22.7 +18.3 76 +28 +28 душно 1009.2 1006.8
12 16.06 З 1 18 км {дождь} н/о +21.6 +17.8 79 +26 +26 душно 1010.0 1007.6 +26.2 0.0
13 16.06 С 1 12 км н/о +20.4 +18.5 89 +26 +26 душно 1010.6 1008.2
14 16.06 З 1 12 км н/о +19.6 +17.9 90 +23 +23 комфорт 1010.9 1008.4
15 16.06 З 1 20 км н/о +19.8 +17.0 84 +24 +24 комфорт 1011.0 1008.5
16 16.06 З 2 9000 м дымка н/о +18.7 +17.9 95 +21 +21 комфорт 1010.9 1008.4
17 16.06 СЗ 1 9000 м дымка н/о +18.0 +17.2 95 +19 +19 1010.9 1008.4
18 16.06 СЗ 1 14 км н/о +18.1 +16.6 91 +19 +19 1011.3 1008.8
19 16.06 З 2 20 км н/о +17.9 +15.9 88 +19 +19 1011.9 1009.4
20 16.06 З 1 18 км н/о +17.5 +15.9 90 +19 +19 1012.2 1009.7
21 16.06 З 1 17 км н/о +17.2 +15.9 92 +18 +18 1012.6 1010.1
22 16.06 З 2 20 км н/о +18.7 +16.7 88 +21 +21 комфорт 1013.0 1010.5
23 16.06 З 3 20 км н/о +21.0 +17.2 79 +25 +25 комфорт 1013.2 1010.8
00 17.06 З 2 20 км н/о +22.4 +16.7 70 +27 +27 душно 1013.5 1011.1 +16.9
01 17.06 ЮЗ 1 20 км н/о +24.3 +15.3 57 +27 +27 жарко 1013.4 1011.0
02 17.06 В 4 20 км н/о +24.7 +16.7 61 +28 +28 душно 1013.6 1011.2
03 17.06 В 4 20 км н/о +24.6 +17.4 64 +29 +29 душно 1013.3 1010.9
05 17.06 В 4 20 км н/о +24.0 +17.3 66 +28 +28 душно 1012.6 1010.2
06 17.06 В 4 20 км н/о +24.3 +18.0 68 +29 +29 душно 1012.5 1010.1
07 17.06 В 4 20 км н/о +23.9 +17.9 69 +28 +28 душно 1012.2 1009.8
08 17.06 СВ 2 20 км н/о +23.2 +17.4 70 +29 +29 душно 1012.1 1009.7
09 17.06 В 1 20 км н/о +23.8 +17.6 68 +28 +28 душно 1012.1 1009.7
10 17.06 Ю 1 20 км н/о +23.4 +17.9 71 +29 +29 душно 1012.5 1010.1
11 17.06 СЗ 1 20 км н/о +22.6 +17.7 74 +28 +28 душно 1013.1 1010.7
12 17.06 З 1 20 км н/о +21.1 +18.3 84 +25 +25 комфорт 1013.4 1011.0 +26.7
13 17.06 З 2 20 км н/о +20.7 +18.8 89 +26 +26 душно 1014.0 1011.5
14 17.06 З 1 20 км н/о +20.2 +18.3 89 +25 +25 комфорт 1014.0 1011.5
15 17.06 З 1 20 км н/о +19.9 +17.9 88 +24 +24 комфорт 1013.6 1011.1
16 17.06 СЗ 2 18 км н/о +19.5 +18.0 91 +23 +23 комфорт 1013.3 1010.8
18 17.06 СЗ 1 20 км н/о +19.2 +17.0 87 +23 +23 комфорт 1012.7 1010.2
19 17.06 З 2 19 км н/о +18.4 +16.7 90 +20 +20 1012.9 1010.4
20 17.06 З 1 18 км н/о +18.3 +16.6 90 +20 +20 1013.1 1010.6

 

Местоположение метеостанции Нобеока (Япония): широта 32.58 долгота 131.65 высота над уровнем моря 21 м.

В архиве по умолчанию представлена погода в Нобеоке за последнюю неделю. Архивные данные за месяц целиком и за предыдущие месяцы, начиная с января 2011 года, Вы можете получить, выбрав интересующий диапазон дат из раскрывающегося списка и нажав кнопку "Ввод!".


*Определитесь, кто Вы:
робот инопланетянин человек

Внимание! Время в таблицах - всемирное. Для получения местного времени необходимо прибавить поправку, которая равна 9 ч.

Смотрите также архив погоды в соседних городах и на ближайших метеорологических станциях:

Погода на Асо (Япония) (65 км)
Погода в Оите (Япония) (72 км)
Погода в Миядзаки (Япония) (76 км)
Погода в Хитоёси (Япония) (94 км)
Погода в Кумамото (Япония) (94 км)
Погода в Сукумо (Япония) (105 км)
Погода в Хите (Япония) (106 км)
Погода в Мияконодзё (Япония) (109 км)
Погода в Увадзиме (Япония) (111 км)
Погода в Абурацу (Япония) (114 км)

Пояснения к столбцам:

Ветер - указаны скорость ветра в м/с - средняя за 10 мин, порывы в срок и между сроками (в фигурных скобках) и направление, откуда дует ветер: С - северный, СВ - северо-восточный, В - восточный, ЮВ - юго-восточный, Ю - южный, ЮЗ - юго-западный, З - западный, СЗ - северо-западный.
Видимость - горизонтальная дальность видимости в метрах или километрах. При видимости от 1 до 10 км при отсутствии осадков обычно наблюдается дымка, при ухудшении видимости до 1 км и менее - туман. В сухую погоду видимость может ухудшаться дымом, пылью или мглою.
Явления - указаны атмосферные явления, наблюдавшиеся в срок или в последний час перед сроком; фигурными скобками обозначены явления, наблюдавшиеся между сроками (за 1-3 часа до срока); квадратными скобками обозначены град или гололедные отложения с указанием их диаметра в мм.
Облачность - указаны через наклонную черту общая и нижняя облачность в баллах и высота нижней границы облаков в метрах; квадратными скобками обозначены формы облаков: Ci - перистые, Cs - перисто-слоистые, Cc - перисто-кучевые, Ac - высококучевые, As - высокослоистые, Sc - слоисто-кучевые, Ns - слоисто-дождевые, Cu - кучевые, Cb - кучево-дождевые. Подробнее классификацию облаков см. в Атласе облаков (PDF).
T - Температура воздуха - температура, измеренная на высоте 2 м над землей.
Td - Температура точки росы - температура, при понижении до которой содержащийся в воздухе водяной пар достигнет насыщения.
f - Относительная влажность воздуха - влажноcть воздуха, измеренная на высоте 2 м над землей.
Te - Эффективная температура - температура, которую ощущает одетый по сезону человек в тени. Характеристика душности погоды. При расчете учитывается влияние влажности воздуха и скорости ветра на теплоощущения человека.
Tes - Эффективная температура на солнце - температура, которую ощущает человек, с поправкой на солнечный нагрев. Характеристика знойности погоды. Зависит от высоты солнца над горизонтом, облачности и скорости ветра. Ночью, в пасмурную погоду, а также при ветре 12 м/с и более поправка равна нулю.
P - Атмосферное давление - приведенное к уровню моря атмосферное давление.
Po - Атмосферное давление - измеренное на уровне метеостанции атмосферное давление.
Tmin - Минимальная температура - минимум температуры воздуха на высоте 2 м над землей.
Tmax - Максимальная температура - максимум температуры воздуха на высоте 2 м над землей.
R - Количество осадков - Количество выпавших осадков за период времени, мм. При наведении курсора мыши на число - период времени, за который выпало указанное количество осадков.
R24 - Количество осадков - Количество выпавших осадков за 24 часа, мм.
S - Снежный покров - Высота снежного покрова, см. При наведении курсора мыши на число - состояние снежного покрова и степень покрытия местности в баллах.